Date String (YYYY-MM-DD hh:mm:ss) UTC,Instrument flags,Ambient pressure (hPa),Sample flow (lpm),Bypass flow (lpm),Sample temperature (°C),Ambient temperature (°C),ASC tube jacket temperature (°C),LED temperature (°C),Box temperature (°C),Sample RH (%),Span deviation,Mass concentration (μg/m³),Mass concentration (μg/m³),Mass concentration (μg/m³)
DateTimeUTC,F1_M11,P_M11,Q1_M11,Q2_M11,T1_M11,T2_M11,T3_M11,T4_M11,T5_M11,U1_M11,ZSPAN_M11,X0_M11,X2_M11,X1_M11
2023-02-14 06:00:00,,0805.0,4.99,0.00,22.5,21.1,00.0,31.4,24.4,13.1,0000.0,0008.72,0003.71,0003.29
2023-02-14 06:01:00,,0805.0,4.99,0.00,22.6,21.2,00.0,31.4,24.4,13.1,0000.0,0008.67,0003.67,0003.26
2023-02-14 06:02:00,,0805.0,4.99,0.00,22.6,21.0,00.0,31.4,24.4,13.1,0000.0,0008.49,0003.63,0003.22
2023-02-14 06:03:00,,0805.0,5.01,0.00,22.5,20.9,00.0,31.4,24.4,13.2,0000.0,0008.39,0003.54,0003.15
2023-02-14 06:04:00,,0805.0,5.02,0.00,22.5,20.8,00.0,31.4,24.4,13.2,0000.0,0007.58,0003.38,0002.98
2023-02-14 06:05:00,,0804.9,5.00,0.00,22.5,20.8,00.0,31.4,24.4,13.2,0000.0,0006.93,0003.25,0002.81
2023-02-14 06:06:00,,0804.9,5.01,0.00,22.5,20.8,00.0,31.4,24.3,13.2,0000.0,0006.96,0003.16,0002.69
2023-02-14 06:07:00,,0804.9,5.00,0.00,22.5,20.7,00.0,31.3,24.2,13.2,0000.0,0007.05,0003.10,0002.61
2023-02-14 06:08:00,,0804.9,5.00,0.00,22.4,20.6,00.0,31.3,24.2,13.0,0000.0,0006.75,0003.01,0002.52
2023-02-14 06:09:00,,0804.9,5.01,0.00,22.4,20.6,00.0,31.3,24.2,12.9,0000.0,0005.83,0002.93,0002.41
2023-02-14 06:10:00,,0805.0,4.99,0.00,22.4,20.6,00.0,31.3,24.2,12.9,0000.0,0005.71,0002.85,0002.34
2023-02-14 06:11:00,,0804.9,5.01,0.00,22.4,20.6,00.0,31.3,24.2,12.9,0000.0,0005.46,0002.76,0002.26
2023-02-14 06:12:00,,0804.9,5.00,0.00,22.3,20.5,00.0,31.3,24.1,13.0,0000.0,0005.31,0002.66,0002.18
2023-02-14 06:13:00,,0805.0,5.01,0.00,22.3,20.5,00.0,31.3,24.1,13.1,0000.0,0005.16,0002.56,0002.09
2023-02-14 06:14:00,,0805.0,5.00,0.00,22.3,20.4,00.0,31.3,24.1,13.1,0000.0,0004.73,0002.51,0002.01
2023-02-14 06:15:00,,0804.9,5.00,0.00,22.3,20.4,00.0,31.3,24.0,13.2,0000.0,0004.70,0002.51,0001.98
2023-02-14 06:16:00,,0804.9,5.01,0.00,22.2,20.3,00.0,31.3,24.0,13.3,0000.0,0004.69,0002.51,0001.98
2023-02-14 06:17:00,,0804.9,5.00,0.00,22.2,20.3,00.0,31.2,24.0,13.3,0000.0,0004.12,0002.48,0001.98
2023-02-14 06:18:00,,0804.9,5.00,0.00,22.2,20.2,00.0,31.2,23.9,13.4,0000.0,0003.66,0002.46,0001.99
2023-02-14 06:19:00,,0804.9,4.99,0.00,22.2,20.2,00.0,31.2,23.9,13.4,0000.0,0003.68,0002.44,0001.99
2023-02-14 06:20:00,,0804.9,5.00,0.00,22.2,20.2,00.0,31.2,23.9,13.4,0000.0,0003.56,0002.39,0001.97
2023-02-14 06:21:00,,0804.8,4.99,0.00,22.1,20.2,00.0,31.2,23.9,13.4,0000.0,0003.60,0002.38,0001.96
2023-02-14 06:22:00,,0804.8,5.01,0.00,22.1,20.2,00.0,31.1,23.9,13.4,0000.0,0003.59,0002.40,0001.99
2023-02-14 06:23:00,,0804.8,5.00,0.00,22.1,20.2,00.0,31.1,23.9,13.3,0000.0,0003.63,0002.40,0001.97
2023-02-14 06:24:00,,0804.7,4.99,0.00,22.1,20.3,00.0,31.1,23.9,13.0,0000.0,0003.86,0002.39,0001.96
2023-02-14 06:25:00,,0804.7,5.00,0.00,22.1,20.3,00.0,31.1,24.0,12.9,0000.0,0004.11,0002.36,0001.95
2023-02-14 06:26:00,,0804.6,5.00,0.00,22.1,20.4,00.0,31.1,24.0,12.9,0000.0,0004.16,0002.33,0001.92
2023-02-14 06:27:00,,0804.7,4.99,0.00,22.1,20.4,00.0,31.1,24.0,13.0,0000.0,0004.24,0002.33,0001.89
2023-02-14 06:28:00,,0804.7,5.01,0.00,22.1,20.5,00.0,31.1,24.0,13.2,0000.0,0004.32,0002.35,0001.87
2023-02-14 06:29:00,,0804.7,5.00,0.00,22.1,20.4,00.0,31.1,24.0,13.1,0000.0,0004.38,0002.35,0001.82
2023-02-14 06:30:00,,0804.6,5.00,0.00,22.1,20.5,00.0,31.1,24.0,13.1,0000.0,0004.27,0002.29,0001.76
2023-02-14 06:31:00,,0804.6,5.00,0.00,22.1,20.6,00.0,31.1,24.1,13.1,0000.0,0004.51,0002.27,0001.74
2023-02-14 06:32:00,,0804.5,5.01,0.00,22.2,20.7,00.0,31.1,24.1,13.1,0000.0,0004.58,0002.26,0001.70
2023-02-14 06:33:00,,0804.5,5.00,0.00,22.2,20.7,00.0,31.1,24.1,13.0,0000.0,0004.50,0002.20,0001.65
2023-02-14 06:34:00,,0804.5,4.99,0.00,22.2,20.6,00.0,31.1,24.1,13.1,0000.0,0004.44,0002.18,0001.65
2023-02-14 06:35:00,,0804.6,5.00,0.00,22.2,20.6,00.0,31.1,24.0,13.1,0000.0,0004.27,0002.15,0001.66
2023-02-14 06:36:00,,0804.5,4.99,0.00,22.2,20.6,00.0,31.1,24.0,13.1,0000.0,0003.91,0002.12,0001.65
2023-02-14 06:37:00,,0804.5,5.00,0.00,22.2,20.5,00.0,31.1,24.0,13.1,0000.0,0003.76,0002.10,0001.64
2023-02-14 06:38:00,,0804.4,5.00,0.00,22.1,20.5,00.0,31.0,24.0,13.1,0000.0,0003.60,0002.05,0001.61
2023-02-14 06:39:00,,0804.3,4.99,0.00,22.1,20.5,00.0,31.0,24.0,13.0,0000.0,0003.56,0002.02,0001.59
2023-02-14 06:40:00,,0804.4,5.00,0.00,22.1,20.5,00.0,31.0,24.0,12.9,0000.0,0003.45,0001.95,0001.56
2023-02-14 06:41:00,,0804.3,5.00,0.00,22.1,20.5,00.0,31.0,24.0,13.0,0000.0,0003.57,0001.95,0001.53
2023-02-14 06:42:00,,0804.3,5.01,0.00,22.1,20.4,00.0,31.0,23.9,13.1,0000.0,0003.27,0001.95,0001.52
2023-02-14 06:43:00,,0804.3,5.00,0.00,22.1,20.7,00.0,31.0,24.0,13.1,0000.0,0003.04,0001.90,0001.49
2023-02-14 06:44:00,,0804.2,5.00,0.00,22.2,21.6,00.0,31.0,24.3,13.1,0000.0,0003.02,0001.89,0001.47
2023-02-14 06:45:00,,0804.2,5.01,0.00,22.3,22.6,00.0,31.0,24.5,13.0,0000.0,0003.00,0001.87,0001.44
2023-02-14 06:46:00,,0804.2,4.95,0.00,22.4,22.8,00.0,31.0,24.6,12.9,0000.0,0002.89,0001.84,0001.42
2023-02-14 06:47:00,,0804.2,5.01,0.00,22.5,22.3,00.0,31.1,24.5,12.9,0000.0,0002.91,0001.87,0001.41
2023-02-14 06:48:00,,0804.3,4.99,0.00,22.4,21.8,00.0,31.1,24.4,12.9,0000.0,0003.01,0001.88,0001.42
2023-02-14 06:49:00,,0804.2,5.01,0.00,22.4,21.5,00.0,31.2,24.3,12.9,0000.0,0003.05,0001.89,0001.43
2023-02-14 06:50:00,,0804.1,4.99,0.00,22.4,21.3,00.0,31.2,24.3,12.9,0000.0,0002.98,0001.86,0001.43
2023-02-14 06:51:00,,0804.2,5.00,0.00,22.4,21.2,00.0,31.2,24.2,13.0,0000.0,0003.05,0001.85,0001.43
2023-02-14 06:52:00,,0804.2,5.00,0.00,22.4,21.0,00.0,31.2,24.2,13.0,0000.0,0003.07,0001.89,0001.43
2023-02-14 06:53:00,,0804.1,5.00,0.00,22.4,20.9,00.0,31.2,24.2,13.0,0000.0,0003.07,0001.90,0001.44
2023-02-14 06:54:00,,0804.1,5.00,0.00,22.4,20.9,00.0,31.2,24.2,13.0,0000.0,0003.10,0001.92,0001.44
2023-02-14 06:55:00,,0804.2,5.00,0.00,22.4,20.8,00.0,31.2,24.2,13.0,0000.0,0003.08,0001.93,0001.44
2023-02-14 06:56:00,,0804.2,5.01,0.00,22.4,20.8,00.0,31.2,24.2,13.2,0000.0,0003.07,0001.93,0001.44
2023-02-14 06:57:00,,0804.2,5.00,0.00,22.4,20.8,00.0,31.2,24.2,13.1,0000.0,0003.10,0001.94,0001.44
2023-02-14 06:58:00,,0804.1,4.98,0.00,22.4,20.8,00.0,31.2,24.2,13.2,0000.0,0003.04,0001.92,0001.43
2023-02-14 06:59:00,,0804.1,4.99,0.00,22.4,20.8,00.0,31.2,24.3,13.2,0000.0,0002.98,0001.91,0001.42
